Погода Pisa

Погода Pisa : погода сейчас, прогноз погоды и архив. Всё, что Вы хотите узнать о погоде Pisa!

Поиск расширенной информации на нашем сайте:

Другие новости

Новости СМИ2

Главная страница сайта

Новости сайта

03.07.2017

Напоминаем, что на нашем специализированном сайте Метеоцентр.Азия вы можете получить высокодетализированные автоматические прогнозы погоды по пунктам России, СНГ и мира в авиационном формате (включающие направление и скорость ветра, видимость, явления погоды, количество и форму облачности, нижнюю и верхнюю границу облачности).


Погода Pisa - сегодня

Время (UTC), дата Ветер
(°,м/с) 
Видим.   Явления Облачность Т
(°С)
Тd
(°С)
f(%) Тe
(°С)
Pmin
(гПа)
dP
(гПа)
Po
(мм)
O2
(г/м3)
Тmin Tmax R s Состояние
почвы
09 20.02.18 120 (ЮВ) 20000 м    5/0 верхняя 
[Ci fib]
+5.2 -0.2 68 +3  1009.2  -0.5  756  299           
12 20.02.18 110 (В) 25000 м    5/0 верхняя 
[Ci fib]
+10.4 -1 45 +9  1007.4  -1.8  755  293           
15 20.02.18 100 (В) 20000 м    6/5 1500 м средняя, верхняя 
[Ac trans|Ci fib]
+9 -1.4 48 +7  1006.5  -1  754  294           
18 20.02.18 060 (СВ) 20000 м    5/3 1500 м средняя, верхняя 
[Ac trans|Ci fib]
+6 -1.6 58 +6  1006.3  -0.2  754  298    +10.8       
21 20.02.18 220 (ЮЗ) 15000 м    9/4 1200 м средняя 
[Sc|Ac und]
+4.4 +1.1 79 +4  1006.5  0.2  754  299           
00 21.02.18 260 (З) 15000 м    9/4 750 м средняя 
[Cu hum|Ac und]
+5 +1.5 78 +6  1005.9  -0.6  754  298           
03 21.02.18 170 (Ю) 15000 м    9/3 750 м средняя 
[Cu hum|Ac und]
+5 +1.7 79 +6  1005.6  -0.3  754  298           
06 21.02.18 150 (ЮВ) 15000 м    9/1 750 м средняя 
[Cu hum|Ac As]
+5.8 +0.2 67 +5  1004.9  -0.7  753  297          сухая 
09 21.02.18 090 (В) 20000 м    8/1 900 м средняя, верхняя 
[Cu hum|Ac trans|Cs]
+8.4 -0.9 52 +6  1005  0.1  753  295           
12 21.02.18 150 (ЮВ) 20000 м    10/1 1050 м средняя 
[Cu hum|Ac trans]
+9 -0.1 53 +8  1005.7  0.7  754  294           
15 21.02.18 100 (В) 20000 м    9/1 1050 м средняя, верхняя 
[Cu hum|Ac trans|Cs]
+9 -0.1 53 +7  1004.7  -1  753  294           
18 21.02.18 080 (В) 20000 м    10/1 1050 м средняя 
[Cu Sc|Ac trans]
+7 +1.1 66 +6  1004.8  0.1  753  296    +10.4       
21 21.02.18 нст () 10 км    10/4 1500 м средняя 
[Cu hum|Ac trans]
+7 +1.9 70 +8  1004.8  753  296           
00 22.02.18 120 (ЮВ) 10 км  слаб. морось{дождь}  10/4 1200 м средняя 
[Cu hum|Ac trans]
+6 +4.5 90 +5  1004.8  753  296      0.0     
06 22.02.18 060 (СВ) 15000 м  {морось}  10/4 1200 м средняя 
[Cu hum|Ac trans]
+6 +2.5 78 +6  1002.7  -1.1  752  296      0.0    сухая 
09 22.02.18 100 (В) 25000 м    10/4 1200 м средняя 
[Cu hum|Ac trans]
+7 +1.5 68 +6  1003.3  0.5  752  295           
12 22.02.18 080 (В) 25000 м    9/9 1200 м 
[Cu Sc]
+9.8 -0.1 50 +8  1003.5  0.3  752  293           
15 22.02.18 080 (В) 20000 м    9/4 1500 м средняя 
[Cu med, cong|Ac trans]
+9.8 +0.9 54 +8  1003.2  -0.3  752  292           
18 22.02.18 110 (В) 12000 м    10/3 1500 м средняя 
[Cu med, cong|Ac trans]
+7 +1.1 66 +6  1003.4  0.2  752  295    +10.5       
21 22.02.18 100 (В) 20000 м    10/5 1500 м средняя 
[Sc|Ac trans]
+6.8 +1.7 70 +6  1003.7  0.3  752  295           
00 23.02.18 070 (В) 20000 м  {дождь}  10/5 900 м средняя 
[Sc|Ac trans]
+7 +3.3 77 +4  1002.8  -0.9  752  295      0.2     
03 23.02.18 110 (В) 20000 м    9/4 1200 м средняя 
[Sc|Ac trans]
+7.4 +2.3 70 +6  1001.9  -0.9  751  294           
06 23.02.18 070 (В) 25000 м    9/1 1500 м средняя 
[Sc|Ac As]
+8 +0.7 60 +6  1001.7  -0.2  751  294      0.2    сухая 
09 23.02.18 080 (В) 30000 м    9/4 1200 м средняя 
[Sc|As trans]
+9.8 +1.2 55 +8  1003.3  1.6  752  292           
12 23.02.18 120 (ЮВ) 30000 м    10/4 1200 м средняя 
[Sc|Ac trans]
+10.6 +2.2 56 +9  1003.4  0.1  752  291           
Время (UTC), дата Ветер
(°,м/с) 
Видим.   Явления Облачность Т
(°С)
Тd
(°С)
f(%) Тe
(°С)
Pmin
(гПа)
dP
(гПа)
Po
(мм)
O2
(г/м3)
Тmin Tmax R s Состояние
почвы

Для получения пояснительной информации подведите курсор к названию столбца.

ПОГОДА Pisa - архив

Всё, что Вы хотите узнать о погоде Pisa - удобно и подробно!

Выберите нужную дату (начиная с 1 января 2015* года) и нажмите кнопку "Найти".
Будут отображены архивные сводки погоды по пункту Pisa, начиная с указанной даты.


Отображать данные в формате CSV (для использования в таблицах Excel)


Внимание! Наш архив погоды предназначен исключительно для личного некоммерческого использования в познавательных целях. Если Вам необходимы официальные справки о состоянии погоды (для производственных, юридических, коммерческих и т.п. целей), обращайтесь в органы Росгидромета.

*Примечание: данная дата относится к архиву по метеостанциям СССР (Россия, СНГ, Балтия).
Архив по метеостанциям Зарубежной Европы и Азии (кроме Китая) хранится 10 дней, по другим регионам земного шара (Китай, Африка, Америка, Австралия, Океания) - 1 день.

Pisa - район местоположения метеостанции


Название, широта, долгота, высота метеостанции:
Pisa (S. Giusto) 43.7°ш. 10.4°д. 6 м над ур. моря [Italy]

Дополнительная информация

В oтличие oт бoльшинства пoгoдных сайтoв мы публикуем пoдрoбную метеoинфoрмацию в детальнoм прoфессиoнальнoм фoрмате.

Характеристики температуры и влажнoсти вoздуха измеряются на высoте 2 м в тени вдали oт зданий и деревьев.
Скoрoсть ветра измеряется на высoте 10 м (на урoвне рoста челoвека скoрoсть ветра ниже в 1.5-2 раза). Если метеoстанция нахoдится в гoрoде или в лесу, тo скoрoсть ветра занижена на 2-4 м/с пo сравнению с oткрытым местoм. Скoрoсть ветра над акватoриями крупных рек и oзёр, а также на вершинах хoлмoв на 2-5 м/с выше, чем в oбычных услoвиях.
Атмoсфернoе давление в разных тoчках местнoсти мoжет значительнo oтличаться oт давления на метеoстанции, в зависимoсти oт услoвий рельефа (при пoдъёме на 10 м давление пoнижается примернo на 1 мм рт.ст.).